COSMOS 2251 DEB, 35703

Orbit data source: Space-Track

COSMOS 2251 DEB, 35703 is space debris in LEO originally from a launch on Wed, 16 Jun 1993 UTC launched from the Plesetsk Missile And Space Complex (PKMTR). The debris from Iridium 33, an American commercial communications satellite, has been tracked extensively since its accidental collision with the defunct Russian satellite Cosmos 2251 in 2009. This event, occurring at high speed in low Earth orbit (LEO), generated thousands of pieces of space debris, significantly increasing the risk of further collisions. The Iridium 33 debris cloud has impacted space traffic management and orbital debris mitigation strategies, making it a subject of ongoing study in space situational awareness.

Loading next visibility...
Identifier
35703, 1993-036APY
Orbit
LEO
Country
Flag of CISCIS
Related business
Manufacturer
Unknown
Mission
Spacecraft
Bus & Motor
Unknown
Mass
Unknown
Launch date (UTC)
1993-06-16 (33 years ago)
Launch vehicle
Unknown
Launch site
Plesetsk Missile And Space Complex (PKMTR)
Object type
Payload
Rocket body
Debris
Shape & HBR
Unknown shape, 0.1 m
Radar Cross Section
Small (<0.1 m²)

Expand to show TLE details & history
Last TLE update: 1 day ago

TLE from 1 day ago
0 COSMOS 2251 DEB
1 35703U 93036APY 26036.38632796  .00013837  00000-0  13289-2 0  9997
2 35703  74.0421 293.3062 0064751 347.7666  12.1940 14.91488986674300
Epoch: 2026-02-05T09:16Z
TLE epoch observation values (Epoch: 2026-02-05T09:16:18.735Z)
Latitude
-0°
Longitude
18.68884°
Altitude
551.854 km
Speed
7.61 km/s
True Right ascension
19h 33m 13s
True Declination
0° 00' 00"
Sunlit
Object was in daylight at epoch
Visualization orbit readout
Latitude
Unknown
Longitude
Unknown
Altitude
Unknown
Speed
Unknown
Apparent Right ascension
Unknown
Apparent Declination
Unknown
Sunlit
N/A
Visualization observer readout
Local Sidereal Time
21:16:58
Azimuth
Unknown
Elevation
Unknown
Doppler factor
Unknown
Orbital elements
Apogee altitude
635.979 km
Perigee altitude
545.729 km
Semi-major axis
6,968.991 km
Eccentricity
0.00648
Inclination
74.0421°
RAAN
293.3062°
Arg. of periapsis
347.7666°
True anomaly
12.35197°
Mean anomaly
12.194°
Eccentric anomaly
12.27286°
Mean motion
3.73068 °/min
Orbital period
96.5 mins
BSTAR
0.0013289
Loading maneuver chart data...
Computing Atmospheric mass density...

Documentation

Showing up to 5 results
|